Content
SEND FEEDBACK

Daily
Averages
Monthly
Summary
United States of America

WILMINGTON, NORTH CAROLINA


Home > North America > United States > North Carolina
Elevation: 72 feet     Latitude: 34 16N     Longitude: 077 54W

WEATHER
 
SELECT A DAY
Number of Records: 213,412;   Date Range: 1/1/95 - 11/27/14
 
SHARE

PRINT THIS DATA

[ ← Previous Day ]
WEATHER ALMANAC - JULY 21, 2013
[ Next Day → ]
[ °C ]   °F
Weather ElementAverageHighLow
Temperature78.3 °F82.9 °F (5:53 pm)75 °F (4:53 am)
Dewpoint72.4 °F75 °F (1:53 pm)69.1 °F (1:53 am)
Humidity82.2 %90 % (4:53 am)72 % (5:53 pm)
Barometer30.00 in30.04 in (8:53 am)29.95 in (5:53 pm)
Wind Speed7 mph10.4 mph (1:53 am)
Weather ElementAverage
Visibility9.8 mi
Wind DirectionSW (227.3 °)

Weather ElementTotal
Precipitation0.03 in
Cooling Degree Days14 (Base 65)
Growing Degree Days29 (Base 50)
Averaged from 26 records on July 21, 2013
WEATHER CONDITIONS BREAKOUT
WIND DIRECTION BREAKOUT
WEATHER BY HOUR - JULY 21, 2013
[ °C ]   °F
Local TimeTemperatureDewpointHumidityBarometerVisibilityWind DirectionWind SpeedGust SpeedPrecipitationEventsConditions
1:53 AM77.0 °F69.1 °F76 %30.02 in10.0 miSSW (210°)10.4 mph0.00 inClear
2:53 AM75.9 °F69.1 °F79 %30.01 in10.0 miSSW (210°)5.8 mphClear
3:53 AM75.9 °F71.1 °F85 %30.00 in10.0 miSW (220°)6.9 mphClear
4:53 AM75.0 °F72.0 °F90 %29.99 in10.0 miSSW (210°)3.5 mph0.01 inClear
5:51 AM75.2 °F71.6 °F89 %29.99 in10.0 miSW (220°)3.5 mphMostly Cloudy
5:53 AM75.0 °F72.0 °F90 %30.00 in10.0 miSW (220°)3.5 mphMostly Cloudy
6:14 AM75.2 °F71.6 °F89 %30.00 in10.0 miWSW (240°)5.8 mphScattered Clouds
6:53 AM75.0 °F71.1 °F87 %30.01 in10.0 miWSW (240°)6.9 mphClear
7:53 AM75.0 °F71.1 °F87 %30.02 in10.0 miWSW (250°)9.2 mphMostly Cloudy
8:53 AM75.9 °F71.1 °F85 %30.04 in10.0 miSW (230°)6.9 mphOvercast
9:53 AM77.0 °F71.1 °F82 %30.04 in10.0 miWSW (240°)9.2 mphOvercast
10:53 AM78.1 °F71.1 °F79 %30.04 in10.0 miWSW (240°)9.2 mphOvercast
11:48 AM80.6 °F71.6 °F74 %30.04 in10.0 miWSW (240°)5.8 mphOvercast
11:53 AM80.1 °F72.0 °F76 %30.04 in10.0 miWSW (240°)5.8 mphOvercast
12:53 PM82.0 °F73.0 °F74 %30.03 in10.0 miWSW (240°)8.1 mphOvercast
1:53 PM81.0 °F75.0 °F82 %30.01 in5.0 miWest (270°)5.8 mph0.01 inRainLight Rain
2:53 PM82.0 °F75.0 °F79 %29.99 in10.0 miWNW (290°)3.5 mph0.00 inOvercast
3:53 PM80.1 °F75.0 °F85 %29.97 in10.0 miSSW (210°)8.1 mph0.00 inRainLight Rain
4:53 PM82.0 °F73.9 °F76 %29.96 in10.0 miSSW (210°)8.1 mph0.00 inOvercast
5:53 PM82.9 °F73.0 °F72 %29.95 in10.0 miSSW (210°)9.2 mphScattered Clouds
6:53 PM82.0 °F73.0 °F74 %29.96 in10.0 miSSW (210°)10.4 mph0.01 inPartly Cloudy
7:53 PM80.1 °F73.0 °F79 %29.96 in10.0 miSSW (210°)10.4 mphMostly Cloudy
8:53 PM79.0 °F73.9 °F84 %29.98 in10.0 miSSW (210°)8.1 mphClear
9:53 PM78.1 °F73.9 °F87 %29.98 in10.0 miSW (220°)8.1 mphScattered Clouds
10:53 PM78.1 °F73.9 °F87 %29.99 in10.0 miSSW (200°)5.8 mphClear
11:53 PM77.0 °F73.9 °F90 %29.98 in10.0 miSW (220°)4.6 mphClear
Hourly data recorded from KILM, located miles away from Wilmington, North Carolina







STORIES FROM OUR PARTNERS